Kingman, AZ

3:34 AM MST on March 30, 2017 (GMT -0700)
Kingman

Weather History for KIGM - January, 2013

Change the Weather History Date:

Thursday, January 3, 2013

  Actual Average Record
Temperature  
Mean Temperature 38 °F 43 °F  
Max Temperature 48 °F 55 °F 75 °F (1918)
Min Temperature 28 °F 31 °F 12 °F (2015)
Degree Days  
Heating Degree Days 27 22  
Month to date heating degree days 67  
Since 1 July heating degree days 1316  
Cooling Degree Days 0 0  
Month to date cooling degree days 0  
Year to date cooling degree days 0  
Moisture  
Dew Point 7 °F    
Average Humidity 29    
Maximum Humidity 49    
Minimum Humidity 7    
Precipitation  
Precipitation 0.00 in 0.03 in 0.53 in (1917)
Month to date precipitation 0.08  
Year to date precipitation 0.08  
Sea Level Pressure  
Sea Level Pressure 30.17 in    
Wind  
Wind Speed 12 mph (NNE)    
Max Wind Speed 22 mph    
Max Gust Speed 29 mph    
Visibility 10 miles    
Events      
T = Trace of Precipitation, MM = Missing Value Source: NWS Daily Summary

Daily Weather History Graph

Daily Weather History Graph

Search for Another Location

Airport or City:

Trip Planner

Search our weather history database for the weather conditions in past years. The results will help you decide how hot, cold, wet, or windy it might be!

Date:

Astronomy

Jan. 03, 2013 Rise Set
Actual Time 7:44 AM MST 5:36 PM MST
Civil Twilight 7:16 AM MST 6:04 PM MST
Nautical Twilight 6:45 AM MST 6:36 PM MST
Astronomical Twilight 6:14 AM MST 7:06 PM MST
Moon No Moon Rise 11:12 AM MST (1/3)
Length of Visible Light 10h 47m
Length of Day
9h 51m
Waning Gibbous, 65% of the Moon is Illuminated
Jan 3
Waning Gibbous
Jan 4
Last Quarter
Jan 11
New
Jan 18
First Quarter
Jan 26
Full

Hourly Weather History & Observations

Time (MST) Temp. Windchill Dew Point Humidity Pressure Visibility Wind Dir Wind Speed Gust Speed Precip Events Conditions
12:42 AM 33.8 °F 25.3 °F 12.2 °F 41% 30.16 in 10.0 mi NNE 11.5 mph - N/A   Clear
12:51 AM 33.1 °F 30.0 °F 12.9 °F 43% 30.11 in 10.0 mi Variable 3.5 mph - N/A   Clear
1:51 AM 32.0 °F 27.5 °F 12.9 °F 45% 30.10 in 10.0 mi NNE 4.6 mph - N/A   Clear
2:51 AM 33.1 °F 22.2 °F 12.9 °F 43% 30.10 in 10.0 mi NNE 17.3 mph - N/A   Clear
3:51 AM 30.0 °F 20.0 °F 12.9 °F 49% 30.13 in 10.0 mi NNE 12.7 mph - N/A   Clear
4:51 AM 30.0 °F 20.5 °F 10.9 °F 45% 30.13 in 10.0 mi NE 11.5 mph - N/A   Clear
5:51 AM 32.0 °F 23.0 °F 9.0 °F 38% 30.15 in 10.0 mi North 11.5 mph - N/A   Clear
6:51 AM 32.0 °F 23.0 °F 7.0 °F 35% 30.17 in 10.0 mi NE 11.5 mph 17.3 mph N/A   Clear
7:51 AM 30.9 °F 18.7 °F 10.0 °F 42% 30.19 in 10.0 mi NNE 19.6 mph - N/A   Clear
8:51 AM 33.8 °F 23.5 °F 12.2 °F 41% 30.25 in 10.0 mi NE 16.1 mph - N/A   Clear
9:51 AM 39.0 °F 31.0 °F 7.0 °F 27% 30.22 in 10.0 mi NNE 13.8 mph - N/A   Clear
10:51 AM 43.0 °F 35.7 °F 3.0 °F 19% 30.21 in 10.0 mi North 15.0 mph - N/A   Clear
11:51 AM 45.0 °F 36.9 °F 3.9 °F 18% 30.18 in 10.0 mi NNE 20.7 mph 26.5 mph N/A   Clear
12:51 PM 46.4 °F 38.5 °F 1.4 °F 16% 30.20 in 10.0 mi NNE 21.9 mph 28.8 mph N/A   Clear
1:51 PM 46.9 °F - 5.0 °F 18% 30.13 in 10.0 mi North 18.4 mph - N/A   Clear
2:51 PM 48.0 °F - 3.9 °F 16% 30.12 in 10.0 mi North 17.3 mph - N/A   Clear
3:51 PM 48.0 °F - 3.0 °F 16% 30.14 in 10.0 mi North 19.6 mph - N/A   Clear
4:51 PM 46.9 °F - 3.0 °F 16% 30.15 in 10.0 mi North 17.3 mph - N/A   Clear
5:51 PM 41.0 °F 33.9 °F 3.9 °F 21% 30.16 in 10.0 mi North 12.7 mph - N/A   Clear
6:51 PM 37.0 °F 29.3 °F 5.0 °F 26% 30.19 in 10.0 mi NNE 11.5 mph - N/A   Clear
7:51 PM 35.1 °F 27.9 °F 5.0 °F 28% 30.21 in 10.0 mi North 9.2 mph - N/A   Clear
8:51 PM 37.0 °F 32.4 °F 3.0 °F 24% 30.21 in 10.0 mi ENE 5.8 mph - N/A   Unknown
9:51 PM 28.9 °F 19.8 °F 3.9 °F 35% 30.22 in 10.0 mi East 10.4 mph - N/A   Clear
10:51 PM 28.0 °F 22.8 °F 3.9 °F 36% 30.22 in 10.0 mi ESE 4.6 mph - N/A   Clear
11:51 PM 32.0 °F 27.5 °F 3.0 °F 29% 30.21 in 10.0 mi ENE 4.6 mph - N/A   Clear